Showing default

O3B FM8, 40082

Orbit data source: Space-Track

O3B FM8, 40082 is a payload satellite owned by O3B (JE) that was launched on Thu, 10 Jul 2014 UTC via a SOYUZ-ST-B launch vehicle from the French Guiana (FRGUI). Payload-class satellites include a variety of spacecraft equipped with specific instruments for various scientific and technological missions. These include communications satellites like Starlink; space stations such as the ISS; scientific satellites like the Hubble; Earth observation satellites from companies like Planet Labs, Umbra, and HawkEye 360; GPS; miniature CubeSats for education and research; and military/defense satellites.

Loading next visibility...
Identifier
40082, 2014-038D
Orbit
Active
Country
Flag of UnknownUnknown / O3B
Related business
Manufacturer
Thales Alenia
Mission
Operational Commercial Communications
Bus & Motor
PRISMA?, LS-400 AOCS?
Mass
700 kg wet, ~500 kg dry
Launch date (UTC)
2014-07-10 (11 years ago)
Launch vehicle
SOYUZ-ST-B
Launch site
French Guiana (FRGUI)
Object type
Payload
Rocket body
Debris
Shape & HBR
Trap Box + 2 Pan, 6.0 m
Radar Cross Section
21.980 m², Large (>1 m²)

Expand to show TLE details & history
Last TLE update: 2 days ago

TLE from 2 days ago
0 O3B FM8
1 40082U 14038D   25259.28229155 -.00000029  00000-0  00000-0 0  9999
2 40082   0.0577   1.6769 0002520 173.0766 185.2492  5.00115828204246
Epoch: 2025-09-16T06:46Z
TLE epoch observation values (Epoch: 2025-09-16T06:46:29.989Z)
Latitude
-0.00354°
Longitude
-97.09977°
Altitude
8,067.993 km
Speed
5.253 km/s
True Right ascension
00h 00m 00s
True Declination
0° 00' 13"
Sunlit
Object was in full shadow at epoch
Visualization orbit readout
Latitude
Unknown
Longitude
Unknown
Altitude
Unknown
Speed
Unknown
Apparent Right ascension
Unknown
Apparent Declination
Unknown
Sunlit
N/A
Visualization observer readout
Local Sidereal Time
03:24:30
Azimuth
Unknown
Elevation
Unknown
Doppler factor
Unknown
Orbital elements
Apogee altitude
8,072.583 km
Perigee altitude
8,065.302 km
Semi-major axis
14,447.079 km
Eccentricity
0.00025
Inclination
0.0577°
RAAN
1.6769°
Arg. of periapsis
173.0766°
True anomaly
185.24656°
Mean anomaly
185.2492°
Eccentric anomaly
185.24788°
Mean motion
1.24989 °/min
Orbital period
288.02 mins
BSTAR
0
Loading maneuver chart data...
Computing Atmospheric mass density...
Loading historical data...
Loading historical data...
Loading historical data...
Loading historical data...
Loading historical data...
Loading historical data...
Loading historical data...
Other satellites on launch #38 in the year 2014 (2014-07-10 UTC)

Documentation

Showing up to 5 results
|